Hourly Weather Rushden

Today, 13 April, Tuesday

Time Temperature Precipitation Wind Pressure Humidity
00:00 -1°C° 0 mm 2 mps 767 mmHg 75%
01:00 -2°C° 0 mm 2 mps 767 mmHg 73%
02:00 -2°C° 0 mm 2 mps 768 mmHg 72%
03:00 -2°C° 0 mm 2 mps 768 mmHg 71%
04:00 -2°C° 0 mm 2 mps 768 mmHg 68%
05:00 -2°C° 0 mm 2 mps 768 mmHg 66%
06:00 -2°C° 0 mm 2 mps 768 mmHg 64%
07:00 +2°C° 0 mm 2 mps 768 mmHg 59%
08:00 +4°C° 0 mm 2 mps 768 mmHg 55%
09:00 +6°C° 0 mm 2 mps 768 mmHg 50%
10:00 +7°C° 0 mm 2 mps 768 mmHg 49%
11:00 +8°C° 0 mm 2 mps 768 mmHg 47%
12:00 +9°C° 0 mm 2 mps 768 mmHg 46%
13:00 +9°C° 0 mm 2 mps 768 mmHg 49%
14:00 +9°C° 0 mm 2 mps 768 mmHg 52%
15:00 +9°C° 0 mm 2 mps 767 mmHg 55%
16:00 +10°C° 0.1 mm 1 mps 767 mmHg 62%
17:00 +9°C° 0.1 mm 1 mps 767 mmHg 70%
18:00 +8°C° 0.1 mm 1 mps 767 mmHg 77%
19:00 +7°C° 0 mm 1 mps 767 mmHg 79%
20:00 +6°C° 0 mm 1 mps 768 mmHg 82%
21:00 +3°C° 0 mm 0 mps 768 mmHg 84%
22:00 +3°C° 0 mm 0 mps 768 mmHg 85%
23:00 +2°C° 0 mm 0 mps 768 mmHg 86%

Tomorrow, 14 April, Wednesday

Time Temperature Precipitation Wind Pressure Humidity
00:00 +2°C° 0 mm 0 mps 768 mmHg 87%
01:00 +2°C° 0 mm 1 mps 768 mmHg 88%
02:00 +2°C° 0 mm 1 mps 768 mmHg 89%
03:00 +2°C° 0 mm 1 mps 768 mmHg 90%
04:00 +2°C° 0 mm 1 mps 768 mmHg 91%
05:00 +2°C° 0 mm 1 mps 768 mmHg 91%
06:00 +1°C° 0 mm 2 mps 768 mmHg 91%
07:00 +3°C° 0 mm 2 mps 769 mmHg 85%
08:00 +4°C° 0 mm 2 mps 769 mmHg 79%
09:00 +5°C° 0 mm 3 mps 769 mmHg 73%
10:00 +7°C° 0 mm 3 mps 769 mmHg 67%
11:00 +8°C° 0 mm 3 mps 769 mmHg 60%
12:00 +9°C° 0 mm 3 mps 769 mmHg 53%
13:00 +9°C° 0 mm 3 mps 768 mmHg 54%
14:00 +9°C° 0 mm 3 mps 768 mmHg 55%
15:00 +8°C° 0 mm 4 mps 768 mmHg 56%
16:00 +8°C° 0 mm 3 mps 768 mmHg 63%
17:00 +7°C° 0 mm 3 mps 768 mmHg 69%
18:00 +5°C° 0 mm 3 mps 768 mmHg 75%
19:00 +3°C° 0 mm 3 mps 769 mmHg 79%
20:00 +1°C° 0 mm 3 mps 769 mmHg 83%
21:00 +1°C° 0 mm 2 mps 769 mmHg 87%
22:00 -1°C° 0 mm 2 mps 769 mmHg 88%
23:00 -1°C° 0 mm 2 mps 769 mmHg 89%

Day after tomorrow, 15 April, Thursday

Time Temperature Precipitation Wind Pressure Humidity
00:00 -2°C° 0 mm 2 mps 769 mmHg 90%
01:00 -2°C° 0 mm 2 mps 769 mmHg 91%
02:00 -2°C° 0 mm 2 mps 769 mmHg 92%
03:00 -2°C° 0 mm 2 mps 769 mmHg 92%
04:00 -2°C° 0 mm 2 mps 769 mmHg 92%
05:00 -2°C° 0 mm 2 mps 769 mmHg 92%
06:00 -2°C° 0 mm 2 mps 769 mmHg 91%
07:00 0°C° 0 mm 3 mps 769 mmHg 83%
08:00 +3°C° 0 mm 3 mps 769 mmHg 75%
09:00 +5°C° 0 mm 4 mps 769 mmHg 66%
10:00 +5°C° 0.1 mm 4 mps 769 mmHg 65%
11:00 +6°C° 0.1 mm 4 mps 769 mmHg 64%
12:00 +6°C° 0.1 mm 5 mps 768 mmHg 63%
13:00 +6°C° 0.2 mm 5 mps 768 mmHg 64%
14:00 +7°C° 0.2 mm 5 mps 768 mmHg 65%
15:00 +7°C° 0.2 mm 5 mps 768 mmHg 65%
16:00 +6°C° 0.1 mm 5 mps 768 mmHg 68%
17:00 +5°C° 0.1 mm 5 mps 767 mmHg 71%
18:00 +5°C° 0.1 mm 4 mps 767 mmHg 75%
19:00 +3°C° 0 mm 4 mps 768 mmHg 81%
20:00 +1°C° 0 mm 3 mps 768 mmHg 87%
21:00 0°C° 0 mm 3 mps 768 mmHg 93%
22:00 -1°C° 0 mm 3 mps 768 mmHg 92%
23:00 -1°C° 0 mm 2 mps 768 mmHg 92%

16 April, Friday

Time Temperature Precipitation Wind Pressure Humidity
00:00 -2°C° 0 mm 2 mps 768 mmHg 92%
01:00 -2°C° 0 mm 2 mps 768 mmHg 92%
02:00 -2°C° 0 mm 2 mps 768 mmHg 91%
03:00 -2°C° 0 mm 2 mps 768 mmHg 91%
04:00 -2°C° 0 mm 2 mps 768 mmHg 90%
05:00 -2°C° 0 mm 2 mps 768 mmHg 89%
06:00 -2°C° 0 mm 2 mps 768 mmHg 89%
07:00 +1°C° 0 mm 3 mps 768 mmHg 80%
08:00 +3°C° 0 mm 3 mps 768 mmHg 72%
09:00 +5°C° 0 mm 4 mps 768 mmHg 64%
10:00 +6°C° 0 mm 4 mps 768 mmHg 59%
11:00 +7°C° 0 mm 4 mps 768 mmHg 55%
12:00 +8°C° 0 mm 4 mps 767 mmHg 51%
13:00 +8°C° 0 mm 4 mps 767 mmHg 53%
14:00 +8°C° 0 mm 4 mps 767 mmHg 55%
15:00 +10°C° 0 mm 4 mps 767 mmHg 56%
16:00 +7°C° 0 mm 4 mps 767 mmHg 62%
17:00 +6°C° 0 mm 4 mps 767 mmHg 67%
18:00 +5°C° 0 mm 4 mps 767 mmHg 72%
19:00 +4°C° 0 mm 4 mps 767 mmHg 78%
20:00 +2°C° 0 mm 3 mps 767 mmHg 83%
21:00 0°C° 0 mm 3 mps 768 mmHg 89%
22:00 +1°C° 0 mm 2 mps 767 mmHg 90%
23:00 -1°C° 0 mm 2 mps 767 mmHg 91%

17 April, Saturday

Time Temperature Precipitation Wind Pressure Humidity
00:00 -1°C° 0 mm 2 mps 767 mmHg 92%
01:00 -1°C° 0 mm 2 mps 767 mmHg 92%
02:00 +1°C° 0 mm 1 mps 767 mmHg 93%
03:00 0°C° 0 mm 1 mps 766 mmHg 93%
04:00 +1°C° 0 mm 1 mps 766 mmHg 93%
05:00 +1°C° 0 mm 1 mps 766 mmHg 93%
06:00 +1°C° 0 mm 1 mps 766 mmHg 93%
07:00 +3°C° 0 mm 2 mps 766 mmHg 85%
08:00 +5°C° 0 mm 2 mps 766 mmHg 78%
09:00 +7°C° 0 mm 2 mps 766 mmHg 70%
10:00 +8°C° 0 mm 2 mps 765 mmHg 65%
11:00 +9°C° 0 mm 2 mps 765 mmHg 60%
12:00 +10°C° 0 mm 2 mps 765 mmHg 55%
13:00 +10°C° 0 mm 2 mps 764 mmHg 54%
14:00 +12°C° 0 mm 1 mps 764 mmHg 53%
15:00 +12°C° 0 mm 1 mps 764 mmHg 53%
16:00 +11°C° 0 mm 1 mps 763 mmHg 58%
17:00 +11°C° 0 mm 1 mps 763 mmHg 64%
18:00 +10°C° 0 mm 1 mps 763 mmHg 70%
19:00 +8°C° 0 mm 1 mps 763 mmHg 74%
20:00 +7°C° 0 mm 1 mps 763 mmHg 78%
21:00 +5°C° 0 mm 2 mps 764 mmHg 83%
22:00 +4°C° 0 mm 2 mps 763 mmHg 84%
23:00 +5°C° 0 mm 1 mps 763 mmHg 86%

18 April, Sunday

Time Temperature Precipitation Wind Pressure Humidity
00:00 +5°C° 0 mm 1 mps 763 mmHg 87%
01:00 +5°C° 0 mm 1 mps 763 mmHg 86%
02:00 +5°C° 0 mm 1 mps 763 mmHg 85%
03:00 +5°C° 0 mm 1 mps 763 mmHg 84%
04:00 +5°C° 0 mm 1 mps 763 mmHg 84%
05:00 +5°C° 0 mm 1 mps 763 mmHg 83%
06:00 +5°C° 0 mm 1 mps 763 mmHg 83%
07:00 +7°C° 0 mm 1 mps 763 mmHg 77%
08:00 +7°C° 0 mm 2 mps 763 mmHg 72%
09:00 +9°C° 0 mm 2 mps 763 mmHg 67%
10:00 +10°C° 0 mm 2 mps 763 mmHg 64%
11:00 +12°C° 0 mm 2 mps 763 mmHg 61%
12:00 +13°C° 0 mm 3 mps 762 mmHg 58%
13:00 +13°C° 0 mm 3 mps 762 mmHg 57%
14:00 +13°C° 0 mm 3 mps 762 mmHg 57%
15:00 +14°C° 0 mm 3 mps 762 mmHg 56%
16:00 +14°C° 0 mm 2 mps 761 mmHg 61%
17:00 +13°C° 0 mm 2 mps 761 mmHg 67%
18:00 +12°C° 0 mm 2 mps 761 mmHg 72%
19:00 +10°C° 0 mm 2 mps 761 mmHg 77%
20:00 +8°C° 0 mm 2 mps 761 mmHg 82%
21:00 +7°C° 0 mm 3 mps 761 mmHg 87%
22:00 +5°C° 0 mm 3 mps 761 mmHg 89%
23:00 +5°C° 0 mm 3 mps 761 mmHg 90%
Show more